Showing default

ASNARO, 40298

Orbit data source: Space-Track

ASNARO, 40298 is a payload satellite owned by J-spacesystems (JP) in SSO that was launched on Thu, 06 Nov 2014 UTC via a DNEPR launch vehicle from the Orenburg, Russia (OREN). Payload-class satellites include a variety of spacecraft equipped with specific instruments for various scientific and technological missions. These include communications satellites like Starlink; space stations such as the ISS; scientific satellites like the Hubble; Earth observation satellites from companies like Planet Labs, Umbra, and HawkEye 360; GPS; miniature CubeSats for education and research; and military/defense satellites.

Loading next visibility...
Identifier
40298, 2014-070A
Orbit
SSO
Last TLE update
3 hours ago
Origin
Manufacturer
NEC Toshiba/Fuchu
Mission
Operational Civil Imaging
Bus & Motor
NEXTAR-300L, AOCS?
Mass
495 kg wet, 450 kg dry
Launch date (UTC)
2014-11-06 (11 years ago)
Launch vehicle
DNEPR
Launch site
Orenburg, Russia (OREN)
Object type
Payload
Rocket body
Debris
Shape & HBR
Cyl + 2 Pan, 3.5 m
Radar Cross Section
9.327 m², Large (>1 m²)

Expand to show TLE details & history

TLE from 3 hours ago
0 ASNARO
1 40298U 14070A   25129.83022485  .00012193  00000-0  57300-3 0  9990
2 40298  97.3797 210.8036 0007808 133.3786 226.8100 15.19714742582770
Epoch: 2025-05-09T19:55Z
Definitive object data (Epoch: 2025-05-09T19:55:31.427Z)
Latitude
-0.00005°
Longitude
44.04192°
Altitude
513.475 km
Speed
7.605 km/s
True Right ascension
14h 03m 12s
True Declination
0° 00' 00"
Sunlit
Object was in full shadow at TLE epoch
Visualization TLE readout
Latitude
18.58172°
Longitude
41.69222°
Altitude
511.445 km
Speed
7.609 km/s
Apparent Right ascension
16h 09m 25s
Apparent Declination
-12° 15' 05"
Sunlit
Object is in full shadow
Visualization observer readout
Local Sidereal Time
07:21:38
Azimuth
70.572° E
Elevation
-39.579°
Doppler factor
1
Orbital elements
Apogee altitude
509.04 km
Perigee altitude
498.294 km
Semi-major axis
6,881.804 km
Eccentricity
0.0007808
Inclination
97.3797°
RAAN
210.8036°
Arg. of periapsis
133.3786°
True anomaly
226.74481°
Mean anomaly
226.81°
Eccentric anomaly
226.7774°
Mean motion
3.8018 °/min
BSTAR
0.000573
Orbital period
94.69 mins
Loading maneuver chart data...
Loading SW <> Apogee altitude chart data...
Loading historical data...
Loading historical data...
Loading historical data...
Loading historical data...
Loading historical data...
Loading historical data...
Loading historical data...

ASNARO Visibility forecast

Observer location: undefined°, undefined°

Span
Click to sort rows by Start time (UTC) header in descending order
Start Az.
Max El. time (UTC)
Max El. Az.
Max El.
End time (UTC)
End Az.
6 mins2025-05-10 05:32:03.811Z175.71° S2025-05-10 05:35:03.811Z278.757° WNW43.215°2025-05-10 05:38:03.811Z342.545° N
6 mins2025-05-10 18:36:03.811Z357.503° N2025-05-10 18:39:03.811Z302.306° NW34.011°2025-05-10 18:42:03.811Z218.455° SW
|